Weather History for Lytton, BC

Change the Weather History Date:

Saturday, September 22, 2012

  Actual Average Record
Temperature  
Mean Temperature 63 °F -  
Max Temperature 70 °F 70 °F 86 °F (1999)
Min Temperature 56 °F 47 °F 41 °F (2000)
Degree Days  
Heating Degree Days 2    
Growing Degree Days 13 (Base 50)    
Moisture  
Dew Point 49 °F    
Average Humidity 59    
Maximum Humidity 72    
Minimum Humidity 40    
Precipitation  
Precipitation 0.00 in - - ()
Sea Level Pressure  
Sea Level Pressure 30.05 in    
Wind  
Wind Speed 15 mph ()    
Max Wind Speed 23 mph    
Max Gust Speed 36 mph    
Visibility 9.0 miles    
Events      
Averages and records for this station are not official NWS values.
T = Trace of Precipitation, MM = Missing Value Source: Averaged Metar Reports

Daily Weather History Graph

Daily Weather History Graph

Search for Another Location

Airport:

Trip Planner

Search our weather history database for the weather conditions in past years. The results will help you decide how hot, cold, wet, or windy it might be!

Date:

Astronomy

Sep. 22, 2012 Rise Set
Actual Time 6:53 AM PDT 7:03 PM PDT
Civil Twilight 6:21 AM PDT 7:35 PM PDT
Nautical Twilight 5:42 AM PDT 8:13 PM PDT
Astronomical Twilight 5:03 AM PDT 8:53 PM PDT
Moon 2:52 PM PDT (9/22) 11:38 PM PDT (9/22)
Length of Visible Light 13h 14m
Length of Day
12h 09m
Waxing Crescent, 50% of the Moon is Illuminated
Sep 22
Waxing Crescent
Sep 22
First Quarter
Sep 29
Full
Oct 8
Last Quarter
Oct 15
New

Hourly Weather History & Observations

Time (PDT) Temp. Dew Point Humidity Pressure Visibility Wind Dir Wind Speed Gust Speed Precip Events Conditions
12:00 AM 60.8 °F 50.0 °F 68% 30.03 in 9.0 mi South 23.0 mph 31.1 mph N/A   Clear
1:00 AM 60.8 °F 50.0 °F 68% 30.04 in 9.0 mi South 13.8 mph 33.4 mph N/A   Clear
2:00 AM 60 °F 49 °F 58% 30.05 in 9 mi South 17.3 mph - -  
2:00 AM 60.8 °F 48.2 °F 63% 30.05 in 9.0 mi South 19.6 mph 27.6 mph N/A   Clear
3:00 AM 59.0 °F 48.2 °F 67% 30.06 in 9.0 mi South 15.0 mph 27.6 mph N/A   Clear
4:00 AM 59.0 °F 48.2 °F 67% 30.06 in 9.0 mi South 16.1 mph 24.2 mph N/A   Clear
5:00 AM 59 °F 48 °F 59% 30.07 in 9 mi South 13.8 mph - -  
5:00 AM 59.0 °F 48.2 °F 67% 30.07 in 9.0 mi SSW 16.1 mph 21.9 mph N/A   Clear
6:00 AM 59.0 °F 48.2 °F 67% 30.08 in 9.0 mi South 15.0 mph 23.0 mph N/A   Clear
7:00 AM 59.0 °F 48.2 °F 67% 30.09 in 9.0 mi SSW 9.2 mph 19.6 mph N/A   Clear
8:00 AM 59 °F 48 °F 57% 30.10 in 9 mi South 4.6 mph - -  
8:00 AM 59.0 °F 48.2 °F 67% 30.10 in 9.0 mi Calm Calm - N/A   Clear
9:00 AM 57.2 °F 48.2 °F 72% 30.10 in 9.0 mi Calm Calm - N/A   Clear
10:00 AM 62.6 °F 48.2 °F 59% 30.09 in 9.0 mi South 21.9 mph 29.9 mph N/A   Clear
11:00 AM 64 °F 48 °F 45% 30.08 in 9 mi South 23.0 mph - -  
11:00 AM 64.4 °F 48.2 °F 56% 30.08 in 9.0 mi South 23.0 mph 32.2 mph N/A   Clear
12:00 PM 66.2 °F 48.2 °F 52% 30.06 in 9.0 mi South 23.0 mph 28.8 mph N/A   Clear
1:00 PM 64.4 °F 48.2 °F 56% 30.04 in 9.0 mi South 18.4 mph 27.6 mph N/A   Clear
2:00 PM 65 °F 48 °F 44% 30.02 in 9 mi South 11.5 mph - -  
2:00 PM 64.4 °F 48.2 °F 56% 30.02 in 9.0 mi South 8.1 mph 19.6 mph N/A   Partly Cloudy
3:00 PM 66.2 °F 48.2 °F 52% 30.01 in 9.0 mi South 17.3 mph 31.1 mph N/A   Clear
4:00 PM 69.8 °F 50.0 °F 49% 29.99 in 9.0 mi South 21.9 mph 35.7 mph N/A   Clear
5:00 PM 68 °F 49 °F 40% 29.99 in 9 mi South 19.6 mph - -  
5:00 PM 68.0 °F 50.0 °F 52% 29.99 in 9.0 mi SSW 18.4 mph 31.1 mph N/A   Clear
6:00 PM 66.2 °F 50.0 °F 56% 30.00 in 9.0 mi South 17.3 mph 24.2 mph N/A   Clear
7:00 PM 64.4 °F 50.0 °F 59% 30.01 in 9.0 mi South 18.4 mph 29.9 mph N/A   Clear
8:00 PM 63 °F 49 °F 51% 30.04 in 9 mi South 23.0 mph - -  
8:00 PM 62.6 °F 50.0 °F 63% 30.04 in 9.0 mi South 21.9 mph 33.4 mph N/A   Clear
9:00 PM 62.6 °F 50.0 °F 63% 30.05 in 9.0 mi South 17.3 mph 29.9 mph N/A   Clear
10:00 PM 62.6 °F 48.2 °F 59% 30.07 in 9.0 mi South 15.0 mph 25.3 mph N/A   Clear
11:00 PM 61 °F 49 °F 54% 30.08 in 9 mi South 12.7 mph - -  
11:00 PM 60.8 °F 48.2 °F 63% 30.08 in 9.0 mi South 12.7 mph 20.7 mph N/A   Clear